| time (UTC) | temp F | wind direction | speed MPH | gust MPH | rain 1hr in | rain 24hr in | rain mn in | humidity % | barometer mb |
| 20260504005849 | 51 | 269 | 9.0 | 21.0 | 0.00 | 0.02 | 0.02 | 56 | 1008.4 |
| 20260504005336 | 51 | 227 | 6.0 | 16.0 | 0.00 | 0.02 | 0.02 | 56 | 1008.3 |
| 20260504004844 | 51 | 218 | 3.0 | 11.0 | 0.00 | 0.02 | 0.02 | 56 | 1008.4 |
| 20260504004344 | 51 | 213 | 4.0 | 12.0 | 0.00 | 0.02 | 0.02 | 58 | 1008.5 |
| 20260504003915 | 51 | 221 | 5.0 | 12.0 | 0.00 | 0.02 | 0.02 | 56 | 1008.4 |
| 20260504003330 | 51 | 255 | 5.0 | 14.0 | 0.00 | 0.02 | 0.02 | 55 | 1008.5 |
| 20260504002850 | 51 | 242 | 6.0 | 14.0 | 0.00 | 0.02 | 0.02 | 55 | 1008.4 |
| 20260504002347 | 51 | 223 | 7.0 | 15.0 | 0.00 | 0.02 | 0.02 | 55 | 1008.4 |
| 20260504001903 | 51 | 223 | 6.0 | 15.0 | 0.00 | 0.02 | 0.02 | 55 | 1008.3 |
| 20260504001334 | 51 | 192 | 6.0 | 19.0 | 0.00 | 0.02 | 0.02 | 56 | 1008.4 |
| 20260504000831 | 51 | 277 | 8.0 | 19.0 | 0.00 | 0.02 | 0.02 | 55 | 1008.3 |
| 20260504000354 | 51 | 228 | 5.0 | 19.0 | 0.00 | 0.02 | 0.02 | 54 | 1008.3 |
| 20260503235837 | 51 | 227 | 4.0 | 14.0 | 0.00 | 0.02 | 0.02 | 54 | 1008.3 |
| 20260503235343 | 51 | 267 | 4.0 | 14.0 | 0.00 | 0.02 | 0.02 | 54 | 1008.3 |
| 20260503234839 | 51 | 267 | 3.0 | 18.0 | 0.00 | 0.02 | 0.02 | 55 | 1008.3 |
| 20260503234340 | 51 | 286 | 5.0 | 18.0 | 0.00 | 0.02 | 0.02 | 54 | 1008.3 |
| 20260503233843 | 51 | 226 | 6.0 | 13.0 | 0.00 | 0.02 | 0.02 | 54 | 1008.3 |
| 20260503233348 | 51 | 226 | 7.0 | 13.0 | 0.00 | 0.02 | 0.02 | 54 | 1008.3 |
| 20260503232836 | 51 | 255 | 5.0 | 22.0 | 0.00 | 0.02 | 0.02 | 53 | 1008.3 |
| 20260503232406 | 51 | 215 | 6.0 | 22.0 | 0.00 | 0.02 | 0.02 | 53 | 1008.1 |
| 20260503231838 | 52 | 232 | 5.0 | 16.0 | 0.00 | 0.02 | 0.02 | 53 | 1008.4 |
| 20260503231347 | 52 | 209 | 5.0 | 16.0 | 0.00 | 0.02 | 0.02 | 52 | 1008.4 |
| 20260503230849 | 52 | 237 | 6.0 | 14.0 | 0.00 | 0.02 | 0.02 | 52 | 1008.4 |
| 20260503230346 | 52 | 246 | 6.0 | 14.0 | 0.00 | 0.02 | 0.02 | 52 | 1008.4 |
| 20260503225836 | 52 | 249 | 3.0 | 18.0 | 0.00 | 0.02 | 0.02 | 50 | 1008.5 |
| 20260503225341 | 52 | 214 | 5.0 | 18.0 | 0.00 | 0.02 | 0.02 | 49 | 1008.5 |
| 20260503224835 | 52 | 242 | 6.0 | 18.0 | 0.00 | 0.02 | 0.02 | 49 | 1008.5 |
| 20260503224333 | 52 | 244 | 7.0 | 21.0 | 0.00 | 0.02 | 0.02 | 48 | 1008.5 |
| 20260503223837 | 52 | 224 | 7.0 | 21.0 | 0.00 | 0.02 | 0.02 | 48 | 1008.6 |
| 20260503223337 | 52 | 278 | 5.0 | 11.0 | 0.00 | 0.02 | 0.02 | 49 | 1008.8 |
| 20260503222843 | 52 | 230 | 5.0 | 13.0 | 0.00 | 0.02 | 0.02 | 50 | 1008.8 |
| 20260503222333 | 52 | 157 | 5.0 | 17.0 | 0.00 | 0.02 | 0.02 | 49 | 1008.7 |
| 20260503221837 | 52 | 69 | 6.0 | 18.0 | 0.00 | 0.02 | 0.02 | 48 | 1008.7 |
| 20260503221344 | 53 | 234 | 7.0 | 18.0 | 0.00 | 0.02 | 0.02 | 48 | 1008.4 |
| 20260503220850 | 53 | 238 | 7.0 | 19.0 | 0.00 | 0.02 | 0.02 | 50 | 1008.7 |
| 20260503220352 | 53 | 300 | 5.0 | 19.0 | 0.00 | 0.02 | 0.02 | 49 | 1008.5 |
| 20260503215839 | 53 | 200 | 6.0 | 15.0 | 0.00 | 0.02 | 0.02 | 48 | 1008.3 |
| 20260503215335 | 53 | 263 | 4.0 | 13.0 | 0.00 | 0.02 | 0.02 | 48 | 1008.4 |
| 20260503214838 | 53 | 188 | 9.0 | 16.0 | 0.00 | 0.02 | 0.02 | 51 | 1008.3 |
| 20260503214355 | 53 | 213 | 7.0 | 15.0 | 0.00 | 0.02 | 0.02 | 51 | 1008.4 |
| 20260503213330 | 53 | 312 | 8.0 | 15.0 | 0.00 | 0.02 | 0.02 | 50 | 1008.3 |
| 20260503212847 | 54 | 265 | 5.0 | 12.0 | 0.00 | 0.02 | 0.02 | 49 | 1008.3 |
| 20260503212349 | 53 | 232 | 6.0 | 17.0 | 0.00 | 0.02 | 0.02 | 50 | 1008.3 |
| 20260503210837 | 54 | 239 | 5.0 | 10.0 | 0.00 | 0.02 | 0.02 | 49 | 1008.2 |
| 20260503210403 | 54 | 209 | 4.0 | 19.0 | 0.00 | 0.02 | 0.02 | 50 | 1008.3 |
| 20260503205853 | 54 | 248 | 4.0 | 19.0 | 0.00 | 0.02 | 0.02 | 50 | 1008.3 |
| 20260503205401 | 54 | 234 | 7.0 | 18.0 | 0.00 | 0.02 | 0.02 | 48 | 1008.3 |
| 20260503204837 | 54 | 223 | 5.0 | 15.0 | 0.00 | 0.02 | 0.02 | 50 | 1008.3 |
| 20260503204334 | 54 | 209 | 6.0 | 21.0 | 0.00 | 0.02 | 0.02 | 48 | 1008.4 |
| 20260503203855 | 55 | 267 | 7.0 | 18.0 | 0.00 | 0.02 | 0.02 | 48 | 1008.4 |
| 20260503203334 | 56 | 260 | 6.0 | 17.0 | 0.00 | 0.02 | 0.02 | 46 | 1008.5 |
| 20260503202840 | 57 | 192 | 4.0 | 12.0 | 0.00 | 0.02 | 0.02 | 49 | 1008.6 |
| 20260503202350 | 57 | 220 | 5.0 | 15.0 | 0.00 | 0.02 | 0.02 | 47 | 1008.5 |
| 20260503201858 | 57 | 212 | 7.0 | 15.0 | 0.00 | 0.02 | 0.02 | 47 | 1008.6 |
| 20260503201352 | 57 | 219 | 7.0 | 17.0 | 0.00 | 0.02 | 0.02 | 46 | 1008.6 |
| 20260503200831 | 57 | 333 | 8.0 | 17.0 | 0.00 | 0.02 | 0.02 | 45 | 1008.6 |
| 20260503200340 | 57 | 237 | 7.0 | 17.0 | 0.00 | 0.02 | 0.02 | 46 | 1008.6 |
| 20260503195831 | 56 | 265 | 6.0 | 16.0 | 0.00 | 0.02 | 0.02 | 46 | 1008.6 |
| 20260503195331 | 56 | 298 | 5.0 | 12.0 | 0.00 | 0.02 | 0.02 | 46 | 1008.7 |
| 20260503194845 | 56 | 200 | 5.0 | 12.0 | 0.00 | 0.02 | 0.02 | 48 | 1008.9 |
| 20260503194338 | 56 | 252 | 5.0 | 12.0 | 0.00 | 0.02 | 0.02 | 50 | 1008.9 |
| 20260503193843 | 56 | 177 | 3.0 | 10.0 | 0.00 | 0.02 | 0.02 | 50 | 1009.1 |
| 20260503193345 | 54 | 234 | 3.0 | 10.0 | 0.00 | 0.02 | 0.02 | 51 | 1009.1 |
| 20260503192846 | 54 | 223 | 5.0 | 15.0 | 0.00 | 0.02 | 0.02 | 50 | 1009.2 |
| 20260503192345 | 55 | 103 | 4.0 | 16.0 | 0.00 | 0.02 | 0.02 | 50 | 1009.1 |
| 20260503191836 | 55 | 5 | 4.0 | 15.0 | 0.00 | 0.02 | 0.02 | 47 | 1009.2 |
| 20260503191339 | 55 | 256 | 6.0 | 12.0 | 0.00 | 0.02 | 0.02 | 49 | 1009.2 |
| 20260503190841 | 55 | 267 | 4.0 | 17.0 | 0.00 | 0.02 | 0.02 | 49 | 1009.3 |
| 20260503190352 | 54 | 279 | 8.0 | 17.0 | 0.00 | 0.02 | 0.02 | 47 | 1009.3 |
| 20260503185838 | 55 | 240 | 6.0 | 15.0 | 0.00 | 0.02 | 0.02 | 45 | 1009.3 |
| 20260503185344 | 55 | 227 | 5.0 | 23.0 | 0.00 | 0.02 | 0.02 | 46 | 1009.5 |
| 20260503184843 | 54 | 245 | 10.0 | 23.0 | 0.00 | 0.02 | 0.02 | 45 | 1009.3 |
| 20260503184347 | 54 | 213 | 10.0 | 20.0 | 0.00 | 0.02 | 0.02 | 45 | 1009.4 |
| 20260503183835 | 54 | 206 | 6.0 | 16.0 | 0.00 | 0.02 | 0.02 | 47 | 1009.5 |
| 20260503183358 | 55 | 248 | 5.0 | 16.0 | 0.00 | 0.02 | 0.02 | 45 | 1009.6 |
| 20260503182846 | 54 | 196 | 5.0 | 18.0 | 0.00 | 0.02 | 0.02 | 47 | 1009.6 |
| 20260503182344 | 54 | 273 | 6.0 | 18.0 | 0.00 | 0.02 | 0.02 | 45 | 1009.7 |
| 20260503181833 | 54 | 195 | 5.0 | 16.0 | 0.00 | 0.02 | 0.02 | 47 | 1009.7 |
| 20260503181353 | 54 | 246 | 8.0 | 16.0 | 0.00 | 0.02 | 0.02 | 48 | 1009.8 |
| 20260503180847 | 54 | 204 | 7.0 | 13.0 | 0.00 | 0.02 | 0.02 | 48 | 1009.8 |
| 20260503180330 | 54 | 251 | 5.0 | 16.0 | 0.00 | 0.02 | 0.02 | 46 | 1009.8 |
| 20260503175838 | 54 | 206 | 3.0 | 10.0 | 0.00 | 0.02 | 0.02 | 48 | 1009.9 |
| 20260503175331 | 53 | 232 | 5.0 | 17.0 | 0.00 | 0.02 | 0.02 | 46 | 1010.0 |
| 20260503174842 | 53 | 249 | 7.0 | 17.0 | 0.00 | 0.02 | 0.02 | 43 | 1010.2 |
| 20260503174352 | 54 | 250 | 7.0 | 16.0 | 0.00 | 0.02 | 0.02 | 50 | 1010.2 |
| 20260503173853 | 52 | 301 | 8.0 | 16.0 | 0.00 | 0.02 | 0.02 | 41 | 1010.3 |
| 20260503173340 | 52 | 238 | 5.0 | 17.0 | 0.00 | 0.02 | 0.02 | 43 | 1010.5 |
| 20260503172905 | 52 | 205 | 9.0 | 21.0 | 0.00 | 0.02 | 0.02 | 43 | 1010.6 |
| 20260503172336 | 52 | 226 | 7.0 | 21.0 | 0.00 | 0.02 | 0.02 | 42 | 1010.6 |
| 20260503171855 | 52 | 200 | 8.0 | 15.0 | 0.00 | 0.02 | 0.02 | 43 | 1010.7 |
| 20260503171411 | 51 | 243 | 5.0 | 10.0 | 0.00 | 0.02 | 0.02 | 49 | 1010.7 |
| 20260503170831 | 51 | 280 | 5.0 | 10.0 | 0.00 | 0.02 | 0.02 | 46 | 1010.8 |
| 20260503170405 | 52 | 238 | 4.0 | 11.0 | 0.00 | 0.02 | 0.02 | 50 | 1010.8 |
| 20260503150837 | 47 | 56 | 2.0 | 14.0 | 0.00 | 0.02 | 0.02 | 60 | 1011.9 |
| 20260503150345 | 48 | 263 | 6.0 | 12.0 | 0.00 | 0.02 | 0.02 | 61 | 1011.8 |
| 20260503131343 | 43 | 241 | 6.0 | 12.0 | 0.00 | 0.02 | 0.02 | 71 | 1012.0 |
| 20260503130858 | 43 | 244 | 4.0 | 14.0 | 0.00 | 0.02 | 0.02 | 70 | 1012.1 |
| 20260503130332 | 43 | 205 | 7.0 | 14.0 | 0.00 | 0.02 | 0.02 | 71 | 1012.0 |
| 20260503110407 | 33 | 214 | 1.0 | 3.0 | 0.00 | 0.00 | 0.00 | 94 | 1011.7 |
| 20260503072857 | 32 | 235 | 2.0 | 7.0 | 0.00 | 0.00 | 0.00 | 94 | 1011.9 |
| 20260503072352 | 32 | 229 | 2.0 | 3.0 | 0.00 | 0.00 | 0.00 | 94 | 1011.9 |
| 20260503071905 | 32 | 229 | 1.0 | 4.0 | 0.00 | 0.00 | 0.00 | 94 | 1011.9 |
| 20260503071353 | 32 | 243 | 2.0 | 4.0 | 0.00 | 0.00 | 0.00 | 94 | 1011.9 |
| 20260503070855 | 32 | 253 | 2.0 | 5.0 | 0.00 | 0.00 | 0.00 | 94 | 1011.9 |
| 20260503070352 | 32 | 245 | 2.0 | 5.0 | 0.00 | 0.00 | 0.00 | 94 | 1012.0 |
| 20260503060336 | 33 | 225 | 3.0 | 4.0 | 0.00 | 0.00 | 0.00 | 93 | 1012.3 |
| 20260503054850 | 33 | 265 | 2.0 | 4.0 | 0.00 | 0.00 | 0.00 | 93 | 1012.3 |
| 20260503054353 | 33 | 243 | 2.0 | 4.0 | 0.00 | 0.00 | 0.00 | 93 | 1012.3 |
| 20260503053844 | 33 | 244 | 2.0 | 6.0 | 0.00 | 0.00 | 0.00 | 93 | 1012.3 |
| 20260503053342 | 33 | 248 | 2.0 | 6.0 | 0.00 | 0.00 | 0.00 | 93 | 1012.4 |
| 20260503052837 | 33 | 236 | 2.0 | 5.0 | 0.00 | 0.00 | 0.00 | 93 | 1012.4 |
| 20260503052355 | 33 | 233 | 2.0 | 4.0 | 0.00 | 0.00 | 0.00 | 93 | 1012.5 |
| 20260503051901 | 33 | 244 | 2.0 | 4.0 | 0.00 | 0.00 | 0.00 | 93 | 1012.5 |
| 20260503051353 | 33 | 240 | 2.0 | 4.0 | 0.00 | 0.00 | 0.00 | 93 | 1012.5 |
| 20260503050850 | 33 | 229 | 2.0 | 4.0 | 0.00 | 0.00 | 0.00 | 93 | 1012.7 |
| 20260503050353 | 33 | 246 | 2.0 | 3.0 | 0.00 | 0.00 | 0.00 | 93 | 1012.5 |
| 20260503045900 | 33 | 246 | 2.0 | 6.0 | 0.00 | 0.00 | 0.00 | 93 | 1012.6 |
| 20260503045412 | 33 | 237 | 2.0 | 6.0 | 0.00 | 0.00 | 0.00 | 93 | 1012.7 |
| 20260503044838 | 33 | 216 | 2.0 | 4.0 | 0.00 | 0.00 | 0.00 | 93 | 1012.7 |
| 20260503044336 | 34 | 227 | 2.0 | 3.0 | 0.00 | 0.00 | 0.00 | 93 | 1012.7 |
| 20260503043836 | 33 | 227 | 2.0 | 3.0 | 0.00 | 0.00 | 0.00 | 93 | 1012.6 |
| 20260503043337 | 34 | 220 | 2.0 | 4.0 | 0.00 | 0.00 | 0.00 | 93 | 1012.8 |
| 20260503042838 | 34 | 219 | 2.0 | 4.0 | 0.00 | 0.00 | 0.00 | 93 | 1012.7 |
| 20260503042346 | 34 | 232 | 2.0 | 4.0 | 0.00 | 0.00 | 0.00 | 93 | 1012.8 |
| 20260503041840 | 34 | 249 | 2.0 | 3.0 | 0.00 | 0.00 | 0.00 | 93 | 1012.8 |
| 20260503041342 | 34 | 249 | 2.0 | 3.0 | 0.00 | 0.00 | 0.00 | 93 | 1012.8 |
| 20260503040859 | 34 | 249 | 1.0 | 3.0 | 0.00 | 0.00 | 0.00 | 93 | 1012.9 |
| 20260503040334 | 34 | 249 | 2.0 | 3.0 | 0.00 | 0.00 | 0.00 | 93 | 1012.9 |
| 20260503035846 | 34 | 229 | 1.0 | 3.0 | 0.00 | 0.00 | 0.00 | 93 | 1012.9 |
| 20260503035337 | 34 | 229 | 1.0 | 3.0 | 0.00 | 0.00 | 0.00 | 93 | 1012.9 |
| 20260503034854 | 34 | 215 | 1.0 | 3.0 | 0.00 | 0.00 | 0.00 | 93 | 1012.8 |
| 20260503034408 | 34 | 244 | 1.0 | 3.0 | 0.00 | 0.00 | 0.00 | 93 | 1012.9 |
| 20260503033837 | 34 | 244 | 1.0 | 3.0 | 0.00 | 0.00 | 0.00 | 93 | 1013.0 |
| 20260503033336 | 34 | 245 | 0.0 | 2.0 | 0.00 | 0.00 | 0.00 | 93 | 1012.9 |
| 20260503032855 | 34 | 244 | 0.0 | 0.0 | 0.00 | 0.00 | 0.00 | 93 | 1012.8 |
| 20260503032335 | 34 | 244 | 0.0 | 0.0 | 0.00 | 0.00 | 0.00 | 92 | 1012.9 |
| 20260503031850 | 34 | 244 | 0.0 | 0.0 | 0.00 | 0.00 | 0.00 | 92 | 1012.8 |
| 20260503031351 | 34 | 244 | 0.0 | 1.0 | 0.00 | 0.00 | 0.00 | 92 | 1012.9 |
| 20260503030906 | 34 | 244 | 1.0 | 1.0 | 0.00 | 0.00 | 0.00 | 92 | 1012.9 |
| 20260503030343 | 34 | 245 | 0.0 | 1.0 | 0.00 | 0.00 | 0.00 | 91 | 1013.0 |
| 20260503025913 | 34 | 244 | 0.0 | 3.0 | 0.00 | 0.00 | 0.00 | 91 | 1012.9 |
| 20260503025413 | 34 | 245 | 1.0 | 3.0 | 0.00 | 0.00 | 0.00 | 91 | 1013.0 |
| 20260503024843 | 34 | 194 | 0.0 | 2.0 | 0.00 | 0.00 | 0.00 | 90 | 1013.0 |
| 20260503024339 | 34 | 194 | 1.0 | 2.0 | 0.00 | 0.00 | 0.00 | 90 | 1013.1 |
| 20260503023855 | 34 | 194 | 0.0 | 3.0 | 0.00 | 0.00 | 0.00 | 89 | 1013.1 |
| 20260503023336 | 34 | 194 | 2.0 | 7.0 | 0.00 | 0.00 | 0.00 | 88 | 1013.2 |
| 20260503022858 | 35 | 242 | 4.0 | 7.0 | 0.00 | 0.00 | 0.00 | 88 | 1013.4 |
| 20260503022338 | 35 | 207 | 3.0 | 4.0 | 0.00 | 0.00 | 0.00 | 88 | 1013.4 |
| 20260503021855 | 35 | 233 | 2.0 | 4.0 | 0.00 | 0.00 | 0.00 | 88 | 1013.4 |
| 20260503021347 | 35 | 224 | 1.0 | 3.0 | 0.00 | 0.00 | 0.00 | 87 | 1013.4 |
| 20260503020842 | 35 | 243 | 2.0 | 3.0 | 0.00 | 0.00 | 0.00 | 87 | 1013.4 |
| 20260503020343 | 35 | 240 | 1.0 | 3.0 | 0.00 | 0.00 | 0.00 | 86 | 1013.4 |
| 20260503015850 | 36 | 240 | 1.0 | 4.0 | 0.00 | 0.00 | 0.00 | 85 | 1013.5 |
| 20260503015351 | 36 | 247 | 2.0 | 7.0 | 0.00 | 0.00 | 0.00 | 85 | 1013.5 |
| 20260503014844 | 36 | 241 | 2.0 | 5.0 | 0.00 | 0.00 | 0.00 | 85 | 1013.4 |
| 20260503014335 | 36 | 232 | 2.0 | 4.0 | 0.00 | 0.00 | 0.00 | 85 | 1013.4 |
| 20260503013837 | 36 | 232 | 2.0 | 7.0 | 0.00 | 0.00 | 0.00 | 85 | 1013.3 |
| 20260503013338 | 36 | 232 | 3.0 | 7.0 | 0.00 | 0.00 | 0.00 | 84 | 1013.2 |
| 20260503012858 | 37 | 244 | 2.0 | 6.0 | 0.00 | 0.00 | 0.00 | 84 | 1013.2 |
| 20260503012337 | 37 | 216 | 2.0 | 4.0 | 0.00 | 0.00 | 0.00 | 84 | 1013.2 |
| 20260503011853 | 37 | 272 | 2.0 | 3.0 | 0.00 | 0.00 | 0.00 | 84 | 1013.2 |
| 20260503011358 | 37 | 229 | 1.0 | 3.0 | 0.00 | 0.00 | 0.00 | 84 | 1013.2 |
| 20260503010859 | 37 | 229 | 1.0 | 4.0 | 0.00 | 0.00 | 0.00 | 84 | 1013.2 |
| 20260503010334 | 37 | 229 | 2.0 | 6.0 | 0.00 | 0.00 | 0.00 | 84 | 1013.2 |